Tracking 28920 objects as of 25-May-2024
HD Live streaming from Space Station
objects crossing your sky now

STARLINK-6029

Track STARLINK-6029 now!
10-day predictions
STARLINK-6029 is classified as:


NORAD ID: 56803
Int'l Code: 2023-078AN
Perigee: 577.1 km
Apogee: 581.4 km
Inclination: 70.0 °
Period: 96.1 minutes
Semi major axis: 6950 km
RCS: Unknown
Launch date: May 31, 2023
Source: United States (US)
Launch site: AIR FORCE WESTERN TEST RANGE (AFWTR)
Your satellite tracking list
Your tracking list is empty




NASA's NSSDC Master Catalog

Two Line Element Set (TLE):
1 56803U 23078AN  24146.19493934  .00000262  00000-0  29747-4 0  9994
2 56803  69.9994 192.1239 0003101 268.0691  92.0113 14.98321226 55053
Source of the keplerian elements: AFSPC